| time (UTC) | temp C | wind direction | speed KPH | gust KPH | rain 1hr cm | rain 24hr cm | rain mn cm | humidity % | barometer mb |
| 20260504081554 | 8 | 126 | 0.0 | 3.2 | 0.00 | 0.03 | 0.00 | 53 | 1022.6 |
| 20260504044531 | 8 | 238 | 1.6 | 9.7 | 0.00 | 0.03 | 0.00 | 50 | 1022.2 |
| 20260504043027 | 8 | 327 | 0.0 | 3.2 | 0.00 | 0.03 | 0.00 | 51 | 1022.0 |
| 20260504041523 | 8 | 193 | 0.0 | 4.8 | 0.00 | 0.03 | 0.00 | 51 | 1022.0 |
| 20260504040021 | 8 | 225 | 1.6 | 6.4 | 0.00 | 0.03 | 0.00 | 51 | 1021.7 |
| 20260504034535 | 8 | 252 | 0.0 | 8.0 | 0.00 | 0.03 | 0.03 | 50 | 1021.7 |
| 20260504033026 | 8 | 194 | 1.6 | 6.4 | 0.00 | 0.03 | 0.03 | 50 | 1021.7 |
| 20260504031519 | 8 | 138 | 0.0 | 3.2 | 0.00 | 0.03 | 0.03 | 49 | 1021.7 |
| 20260504030118 | 9 | 221 | 0.0 | 3.2 | 0.00 | 0.03 | 0.03 | 48 | 1021.6 |
| 20260504024518 | 9 | 246 | 0.0 | 4.8 | 0.00 | 0.03 | 0.03 | 47 | 1021.7 |
| 20260504023017 | 9 | 143 | 0.0 | 3.2 | 0.00 | 0.03 | 0.03 | 46 | 1021.7 |
| 20260504021516 | 10 | 246 | 0.0 | 4.8 | 0.00 | 0.03 | 0.03 | 45 | 1021.7 |
| 20260504020016 | 10 | 250 | 1.6 | 4.8 | 0.00 | 0.03 | 0.03 | 44 | 1021.7 |
| 20260504014518 | 10 | 265 | 0.0 | 4.8 | 0.00 | 0.03 | 0.03 | 42 | 1021.6 |
| 20260504013015 | 10 | 242 | 0.0 | 4.8 | 0.00 | 0.03 | 0.03 | 41 | 1021.5 |
| 20260504011514 | 10 | 267 | 0.0 | 4.8 | 0.00 | 0.03 | 0.03 | 41 | 1021.4 |
| 20260504010014 | 11 | 250 | 0.0 | 3.2 | 0.00 | 0.03 | 0.03 | 40 | 1021.2 |
| 20260504004513 | 11 | 255 | 0.0 | 3.2 | 0.00 | 0.03 | 0.03 | 41 | 1021.1 |
| 20260504003013 | 11 | 265 | 0.0 | 3.2 | 0.00 | 0.03 | 0.03 | 38 | 1020.9 |
| 20260504001512 | 11 | 285 | 1.6 | 6.4 | 0.00 | 0.03 | 0.03 | 37 | 1020.7 |
| 20260504000011 | 12 | 281 | 0.0 | 3.2 | 0.00 | 0.03 | 0.03 | 37 | 1020.5 |
| 20260503234512 | 12 | 12 | 3.2 | 9.7 | 0.00 | 0.03 | 0.03 | 36 | 1020.3 |
| 20260503233011 | 12 | 261 | 0.0 | 6.4 | 0.00 | 0.03 | 0.03 | 35 | 1020.2 |
| 20260503231515 | 13 | 75 | 3.2 | 12.9 | 0.00 | 0.03 | 0.03 | 34 | 1020.0 |
| 20260503230009 | 13 | 300 | 3.2 | 12.9 | 0.00 | 0.03 | 0.03 | 34 | 1019.9 |
| 20260503224509 | 13 | 78 | 1.6 | 9.7 | 0.00 | 0.03 | 0.03 | 32 | 1019.8 |
| 20260503223020 | 13 | 270 | 1.6 | 8.0 | 0.00 | 0.03 | 0.03 | 33 | 1019.7 |
| 20260503221506 | 13 | 267 | 3.2 | 14.5 | 0.00 | 0.03 | 0.03 | 32 | 1019.7 |
| 20260503220011 | 14 | 340 | 4.8 | 12.9 | 0.00 | 0.03 | 0.03 | 33 | 1019.6 |
| 20260503214505 | 14 | 171 | 3.2 | 12.9 | 0.00 | 0.03 | 0.03 | 31 | 1019.6 |
| 20260503213004 | 13 | 302 | 1.6 | 20.9 | 0.00 | 0.03 | 0.03 | 31 | 1019.6 |
| 20260503211502 | 14 | 282 | 3.2 | 12.9 | 0.00 | 0.03 | 0.03 | 32 | 1019.6 |
| 20260503210002 | 13 | 107 | 4.8 | 19.3 | 0.00 | 0.03 | 0.03 | 32 | 1019.5 |
| 20260503204501 | 13 | 26 | 4.8 | 17.7 | 0.00 | 0.03 | 0.03 | 34 | 1019.6 |
| 20260503203114 | 13 | 231 | 3.2 | 16.1 | 0.00 | 0.03 | 0.03 | 31 | 1019.6 |
| 20260503201557 | 13 | 286 | 4.8 | 14.5 | 0.00 | 0.03 | 0.03 | 31 | 1019.7 |
| 20260503200054 | 12 | 283 | 6.4 | 22.5 | 0.00 | 0.03 | 0.03 | 32 | 1019.8 |
| 20260503194553 | 13 | 9 | 9.7 | 27.4 | 0.00 | 0.03 | 0.03 | 34 | 1019.7 |
| 20260503193052 | 12 | 153 | 3.2 | 14.5 | 0.00 | 0.03 | 0.03 | 36 | 1020.1 |
| 20260503191602 | 12 | 58 | 6.4 | 22.5 | 0.00 | 0.03 | 0.03 | 39 | 1020.1 |
| 20260503190048 | 12 | 49 | 4.8 | 20.9 | 0.00 | 0.03 | 0.03 | 34 | 1020.2 |
| 20260503184605 | 11 | 342 | 4.8 | 22.5 | 0.00 | 0.03 | 0.03 | 36 | 1020.3 |
| 20260503183048 | 11 | 17 | 4.8 | 22.5 | 0.00 | 0.03 | 0.03 | 41 | 1020.6 |
| 20260503181545 | 12 | 252 | 8.0 | 17.7 | 0.00 | 0.03 | 0.03 | 36 | 1020.4 |
| 20260503180041 | 11 | 344 | 3.2 | 20.9 | 0.00 | 0.03 | 0.03 | 39 | 1020.6 |
| 20260503174551 | 11 | 88 | 3.2 | 17.7 | 0.00 | 0.03 | 0.03 | 42 | 1020.7 |
| 20260503173037 | 9 | 296 | 3.2 | 19.3 | 0.00 | 0.03 | 0.03 | 42 | 1020.9 |
| 20260503171537 | 10 | 324 | 6.4 | 17.7 | 0.00 | 0.03 | 0.03 | 43 | 1020.8 |